Location: Ecklingerode
(51.5036°N, 10.3122°E)
Time: 06:44:58
(UTC+00:00)

ERS-2 - Pass Details

Date: 29 October 2020
Orbit: 493 x 497 km, 98.6° (Epoch: 01 December)

Event Time Altitude Azimuth Distance (km) Brightness Sun altitude
Rises 17:09:50 0° 14° (NNE) 2,591 5.5 -11.9°
Reaches altitude 10° 17:11:55 10° 13° (NNE) 1,703 4.6 -12.2°
Maximum altitude 17:15:35 81° 288° (WNW) 508 2.2 -12.8°
Drops below altitude 10° 17:19:13 10° 200° (SSW) 1,690 5.1 -13.3°
Sets 17:21:16 0° 200° (SSW) 2,568 6.1 -13.6°
